Home > Weather > Bad Radkersburg > Past weeks

Flag for Austria Weather for the Past 2 Weeks in Bad Radkersburg, Styria, Austria

Now
59 °F

Partly sunny.


Feels Like: 58 °F
Forecast: 50 / 58 °F
Wind: 6 mph from Northeast

Location: Maribor / Slivnica

Current Time: May 3, 2016 at 10:52:44 AM

Latest Report: May 3, 2016 at 10:00 AM


Visibility: N/A

Pressure: 29.95 "Hg

Humidity: 68%

Dew Point: 48 °F

Location of Bad RadkersburgLocation

Historic Weather in Bad Radkersburg — Graph

°F

Bad Radkersburg Temperature Yesterday

Maximum temperature yesterday: 55 °F (at 6:00 PM)
Minimum temperature yesterday: 52 °F (at 12:00 AM)
Average temperature yesterday: 53 °F

High & Low Weather Summary for the Past Weeks

 TemperatureHumidityPressure
High72 °F (Apr 22, 3:30 PM)100% (Apr 27, 12:30 PM)30.36 "Hg (Apr 27, 12:30 PM)
Low28 °F (Apr 26, 4:00 AM)28% (Apr 25, 3:00 PM)29.56 "Hg (Apr 23, 6:00 PM)
Average49 °F70%29.97 "Hg
* Reported Apr 18 9:30 AM — May 3 9:30 AM, Bad Radkersburg, Weather by CustomWeather, © 2016

Note: Actual official high and low records may vary slightly from our data, if they occured in-between our weather recording intervals... More about our weather records

Advertising

Bad Radkersburg Weather History for the Previous 24 Hours

Scroll right to see more
 ConditionsComfort  
Time TempWeatherWind HumidityBarometerVisibility
9:30 AM
Tue, May 3
57 °FPartly sunny.12 mph67%29.92 "HgN/A
9:00 AM55 °FLight rain. Clear.10 mph72%29.95 "HgN/A
8:30 AM54 °FLight rain. Clear.12 mph77%29.95 "HgN/A
8:00 AM54 °FLight rain. Overcast.9 mph77%29.95 "HgN/A
7:30 AM54 °FLight rain. Overcast.12 mph77%29.95 "HgN/A
7:00 AM54 °FLight rain. Broken clouds.10 mph77%29.92 "HgN/A
6:30 AM54 °FLight rain. Partly cloudy.10 mph77%29.92 "HgN/A
5:30 AM54 °FClear.12 mph72%29.92 "HgN/A
5:00 AM54 °FClear.13 mph72%29.92 "HgN/A
4:30 AM54 °FSprinkles. Clear.14 mph77%29.92 "HgN/A
3:30 AM54 °FClear.9 mph77%29.92 "HgN/A
3:00 AM54 °FClear.10 mph77%29.95 "HgN/A
2:30 AM54 °FClear.15 mph82%29.92 "HgN/A
2:00 AM54 °FSprinkles. Clear.14 mph82%29.95 "HgN/A
1:30 AM54 °FSprinkles. Clear.15 mph82%29.95 "HgN/A
1:00 AM54 °FSprinkles. Clear.13 mph82%29.95 "HgN/A
12:00 AM52 °FPassing clouds.8 mph82%29.98 "HgN/A
11:30 PM
Mon, May 2
54 °FClear.8 mph82%29.98 "HgN/A
11:00 PM52 °FPassing clouds.8 mph88%29.98 "HgN/A
10:30 PM52 °FPassing clouds.7 mph94%29.98 "HgN/A
10:00 PM54 °FPassing clouds.9 mph88%29.98 "HgN/A
9:30 PM54 °FPassing clouds.10 mph88%29.98 "HgN/A
9:00 PM54 °FPartly sunny.12 mph88%29.98 "HgN/A
8:30 PM54 °FLight rain. Mostly cloudy.12 mph88%29.98 "Hg5 mi
8:00 PM54 °FLight rain. Fog.8 mph88%29.95 "Hg2 mi
7:30 PM55 °FLight rain. Overcast.10 mph82%29.95 "HgN/A
7:00 PM55 °FOvercast.9 mph82%29.95 "HgN/A
6:30 PM54 °FOvercast.9 mph88%29.98 "HgN/A
6:00 PM55 °FOvercast.9 mph82%29.98 "HgN/A
5:30 PM54 °FMore clouds than sun.8 mph88%29.98 "HgN/A
5:00 PM54 °FMore clouds than sun.8 mph88%29.98 "HgN/A
4:30 PM54 °FMostly cloudy.9 mph88%29.98 "HgN/A
4:00 PM54 °FCloudy.10 mph88%29.98 "HgN/A
3:30 PM54 °FCloudy.10 mph94%30.01 "HgN/A
3:00 PM54 °FCloudy.8 mph94%30.01 "HgN/A
2:30 PM54 °FLight rain. More clouds than sun.9 mph94%30.01 "HgN/A
2:00 PM54 °FLight rain. More clouds than sun.10 mph88%30.01 "HgN/A
1:30 PM54 °FLight rain. Broken clouds.13 mph94%30.01 "HgN/A
1:00 PM54 °FLight rain. More clouds than sun.10 mph94%30.01 "HgN/A
12:30 PM54 °FLight rain. Cloudy.12 mph88%30.04 "Hg4 mi
12:00 PM54 °FLight rain. Cloudy.10 mph94%30.04 "Hg4 mi
11:30 AM54 °FLight rain. Cloudy.10 mph88%30.04 "Hg4 mi
11:00 AM54 °FLight rain. Cloudy.12 mph88%30.04 "Hg4 mi
10:30 AM52 °FRain. Mostly cloudy.12 mph94%30.01 "Hg4 mi
10:00 AM52 °FLight rain. Mostly cloudy.13 mph94%30.01 "Hg4 mi
Weather by CustomWeather, © 2016

See weather overviewHow to use our weather pages